Home   Weather   USA   Sedona   Past weeks
Flag for USA

Past Weather in Sedona, Arizona, USA — Yesterday and Last 2 Weeks

Currently: 64 °F. Clear. (Weather station: Sedona Airport, USA). See more current weather

Past Weather in Sedona — Graph

°F

Sedona Temperature Yesterday

Maximum temperature yesterday: 86 °F (at 12:15 pm)
Minimum temperature yesterday: 64 °F (at 1:55 pm)
Average temperature yesterday: 69 °F

High & Low Weather Summary for the Past Weeks

 TemperatureHumidityPressure
High95 °F (Aug 3, 1:15 pm)100% (Aug 4, 7:15 am)30.29 "Hg (Aug 4, 7:15 am)
Low64 °F (Aug 4, 7:15 am)17% (Aug 6, 4:15 pm)30.06 "Hg (Aug 6, 5:55 pm)
Average77 °F55%30.19 "Hg
* Reported Jul 31 1:15 am — Aug 15 1:15 am, Sedona. Weather by CustomWeather, © 2022

Note: Actual official high and low records may vary slightly from our data, if they occured in-between our weather recording intervals... More about our weather records

Sedona Weather History for the Previous 24 Hours

Scroll right to see more
 ConditionsComfort  
Time TempWeatherWind HumidityBarometerVisibility
1:15 am
Mon, Aug 15
64 °FClear.5 mph88%30.14 "Hg10 mi
12:35 am66 °FClear.3 mph83%30.15 "Hg10 mi
12:15 am64 °FPassing clouds.5 mph88%30.15 "Hg10 mi
11:55 pm
Sun, Aug 14
64 °FPassing clouds.7 mph94%30.15 "Hg10 mi
11:35 pm64 °FPassing clouds.6 mph88%30.15 "Hg10 mi
11:15 pm64 °FPassing clouds.8 mph88%30.15 "Hg10 mi
10:55 pm64 °FPassing clouds.5 mph94%30.15 "Hg10 mi
10:35 pm64 °FPassing clouds.5 mph94%30.15 "Hg10 mi
10:15 pm64 °FClear.No wind94%30.16 "Hg10 mi
9:55 pm64 °FClear.No wind94%30.16 "Hg10 mi
9:35 pm64 °FPassing clouds.5 mph94%30.17 "Hg10 mi
9:15 pm64 °FOvercast.No wind94%30.17 "Hg10 mi
8:55 pm64 °FOvercast.No wind100%30.18 "Hg10 mi
8:35 pm64 °FLight rain. Overcast.3 mph100%30.18 "Hg10 mi
8:15 pm64 °FLight rain. Overcast.No wind100%30.18 "Hg10 mi
7:55 pm64 °FLight rain. Overcast.9 mph100%30.18 "Hg10 mi
7:35 pm64 °FOvercast.10 mph94%30.16 "Hg10 mi
7:15 pm66 °FPartly sunny.7 mph88%30.14 "Hg10 mi
6:55 pm68 °FSunny.5 mph83%30.13 "Hg10 mi
6:35 pm66 °FSunny.5 mph88%30.11 "Hg10 mi
6:15 pm66 °FScattered clouds.No wind94%30.10 "Hg10 mi
5:55 pm66 °FLight rain. Broken clouds.5 mph88%30.12 "Hg10 mi
4:35 pm66 °FLight rain. Mostly cloudy.No wind94%30.18 "Hg10 mi
4:15 pm68 °FLight rain. Cloudy.No wind78%30.19 "Hg10 mi
3:55 pm68 °FLight rain. Cloudy.No wind73%30.19 "Hg10 mi
3:35 pm68 °FThunderstorms. Cloudy.7 mph78%30.19 "Hg10 mi
3:15 pm70 °FLight rain. More clouds than sun.6 mph73%30.18 "Hg10 mi
2:35 pm68 °FThunderstorms. Sunny.16 mph73%30.18 "Hg10 mi
2:15 pm66 °FThundershowers. Scattered clouds.14 mph78%30.18 "Hg10 mi
1:55 pm64 °FThundershowers. Broken clouds.10 mph88%30.19 "Hg10 mi
1:15 pm70 °FThundershowers. More clouds than sun.17 mph60%30.21 "Hg10 mi
12:15 pm86 °FThunderstorms. Sunny.7 mph43%30.17 "Hg10 mi
11:35 am84 °FThundershowers. Sunny.6 mph45%30.18 "Hg10 mi
10:15 am81 °FThundershowers. Sunny.6 mph54%30.20 "Hg10 mi
9:55 am79 °FSunny.5 mph54%30.21 "Hg10 mi
9:35 am79 °FSunny.7 mph58%30.21 "Hg10 mi
9:15 am77 °FSunny.6 mph57%30.21 "Hg10 mi
8:55 am77 °FSunny.5 mph61%30.22 "Hg10 mi
8:35 am75 °FSunny.5 mph61%30.22 "Hg10 mi
8:15 am72 °FScattered clouds.No wind69%30.22 "Hg10 mi
7:55 am72 °FPartly sunny.3 mph69%30.22 "Hg10 mi
7:35 am72 °FSunny.No wind69%30.22 "Hg10 mi
7:15 am72 °FSunny.5 mph69%30.21 "Hg10 mi
6:35 am70 °FSunny.3 mph73%30.21 "Hg10 mi
6:15 am70 °FScattered clouds.6 mph73%30.21 "Hg10 mi
5:35 am70 °FClear.No wind73%30.20 "Hg10 mi
5:15 am70 °FClear.No wind73%30.19 "Hg10 mi
4:55 am70 °FClear.No wind69%30.19 "Hg10 mi
4:15 am70 °FClear.5 mph69%30.19 "Hg10 mi
3:55 am70 °FClear.6 mph73%30.19 "Hg10 mi
3:35 am70 °FClear.5 mph73%30.20 "Hg10 mi
3:15 am70 °FClear.5 mph73%30.21 "Hg10 mi
2:35 am70 °FClear.No wind73%30.21 "Hg10 mi
Weather by CustomWeather, © 2022

See weather overview